When you browse on this site, cookies collect data to enhance your experience and personalize the content and advertising you see.
Visit our Privacy Policy to learn more. By continuing to use the site, you agree to this use of cookies and data.
  • In Switzerland
  • List of Countries
  • For 7 days
  • Water Temperature
  • Satellite Maps
  • Weather Map
  • Weather Widgets
  • user-avatar
    Login

    Hourly Weather Korçe

    Today, 22 January, Tuesday

    Time Temperature Precipitation Wind Pressure Humidity
    00:00 +1°C° 0 mm 2 mps 663 mmHg 89%
    01:00 0°C° 0 mm 3 mps 663 mmHg 90%
    02:00 0°C° 0.1 mm 3 mps 662 mmHg 90%
    03:00 0°C° 0.1 mm 3 mps 662 mmHg 89%
    04:00 0°C° 0.1 mm 3 mps 662 mmHg 89%
    05:00 0°C° 0.6 mm 3 mps 661 mmHg 90%
    06:00 0°C° 0.6 mm 3 mps 661 mmHg 90%
    07:00 0°C° 0.6 mm 3 mps 661 mmHg 90%
    08:00 +1°C° 0.4 mm 3 mps 661 mmHg 90%
    09:00 +1°C° 0.4 mm 3 mps 661 mmHg 90%
    10:00 +2°C° 0.4 mm 3 mps 661 mmHg 90%
    11:00 +2°C° 0.7 mm 3 mps 660 mmHg 90%
    12:00 +2°C° 0.7 mm 3 mps 660 mmHg 91%
    13:00 +2°C° 0.7 mm 3 mps 659 mmHg 91%
    14:00 +2°C° 1.1 mm 3 mps 659 mmHg 92%
    15:00 +1°C° 1.1 mm 3 mps 658 mmHg 92%
    16:00 +1°C° 1.1 mm 3 mps 658 mmHg 93%
    17:00 +1°C° 1.6 mm 3 mps 658 mmHg 94%
    18:00 +1°C° 1.6 mm 3 mps 657 mmHg 94%
    19:00 +1°C° 1.6 mm 3 mps 657 mmHg 95%
    20:00 +1°C° 0.3 mm 3 mps 657 mmHg 96%
    21:00 +1°C° 0.3 mm 3 mps 657 mmHg 97%
    22:00 +1°C° 0.3 mm 3 mps 657 mmHg 98%
    23:00 0°C° 0.1 mm 3 mps 657 mmHg 98%

    Tomorrow, 23 January, Wednesday

    Time Temperature Precipitation Wind Pressure Humidity
    00:00 0°C° 0.1 mm 3 mps 657 mmHg 98%
    01:00 0°C° 0.1 mm 3 mps 657 mmHg 98%
    02:00 0°C° 0 mm 3 mps 657 mmHg 98%
    03:00 -1°C° 0 mm 3 mps 656 mmHg 97%
    04:00 -1°C° 0 mm 3 mps 656 mmHg 97%
    05:00 -1°C° 0 mm 3 mps 656 mmHg 96%
    06:00 -1°C° 0 mm 3 mps 656 mmHg 96%
    07:00 -1°C° 0 mm 3 mps 656 mmHg 95%
    08:00 0°C° 0 mm 3 mps 656 mmHg 92%
    09:00 +1°C° 0 mm 3 mps 656 mmHg 90%
    10:00 +2°C° 0 mm 3 mps 656 mmHg 88%
    11:00 +2°C° 0.2 mm 3 mps 656 mmHg 88%
    12:00 +2°C° 0.2 mm 3 mps 655 mmHg 88%
    13:00 +2°C° 0.2 mm 3 mps 654 mmHg 88%
    14:00 +3°C° 0.4 mm 2 mps 654 mmHg 88%
    15:00 +2°C° 0.4 mm 2 mps 653 mmHg 89%
    16:00 +2°C° 0.4 mm 2 mps 653 mmHg 90%
    17:00 +3°C° 1.2 mm 1 mps 652 mmHg 90%
    18:00 +3°C° 1.2 mm 1 mps 652 mmHg 90%
    19:00 +2°C° 1.2 mm 1 mps 652 mmHg 90%
    20:00 +2°C° 0.1 mm 1 mps 651 mmHg 90%
    21:00 +2°C° 0.1 mm 1 mps 651 mmHg 90%
    22:00 +1°C° 0.1 mm 1 mps 651 mmHg 90%
    23:00 +1°C° 0.1 mm 1 mps 650 mmHg 90%

    Day after tomorrow, 24 January, Thursday

    Time Temperature Precipitation Wind Pressure Humidity
    00:00 +1°C° 0.1 mm 1 mps 650 mmHg 90%
    01:00 +1°C° 0.1 mm 1 mps 649 mmHg 90%
    02:00 +1°C° 0.4 mm 1 mps 649 mmHg 91%
    03:00 +2°C° 0.4 mm 1 mps 649 mmHg 91%
    04:00 +2°C° 0.4 mm 1 mps 648 mmHg 91%
    05:00 +2°C° 1 mm 1 mps 648 mmHg 92%
    06:00 +2°C° 1 mm 1 mps 648 mmHg 93%
    07:00 +2°C° 1 mm 1 mps 648 mmHg 93%
    08:00 +2°C° 1.5 mm 1 mps 649 mmHg 94%
    09:00 +2°C° 1.5 mm 1 mps 649 mmHg 95%
    10:00 +2°C° 1.5 mm 1 mps 649 mmHg 96%
    11:00 +2°C° 0.7 mm 1 mps 649 mmHg 94%
    12:00 +3°C° 0.7 mm 1 mps 649 mmHg 92%
    13:00 +3°C° 0.7 mm 1 mps 649 mmHg 91%
    14:00 +3°C° 0 mm 1 mps 650 mmHg 90%
    15:00 +2°C° 0 mm 2 mps 650 mmHg 90%
    16:00 +2°C° 0 mm 2 mps 650 mmHg 89%
    17:00 +1°C° 0 mm 2 mps 650 mmHg 89%
    18:00 -2°C° 0 mm 2 mps 649 mmHg 88%
    19:00 -3°C° 0 mm 2 mps 649 mmHg 88%
    20:00 -2°C° 0.1 mm 2 mps 649 mmHg 86%
    21:00 -2°C° 0.1 mm 2 mps 649 mmHg 84%
    22:00 -2°C° 0.1 mm 3 mps 649 mmHg 83%
    23:00 -1°C° 1.1 mm 3 mps 650 mmHg 86%

    25 January, Friday

    Time Temperature Precipitation Wind Pressure Humidity
    00:00 -1°C° 1.1 mm 3 mps 650 mmHg 89%
    01:00 -1°C° 1.1 mm 3 mps 650 mmHg 92%
    02:00 -1°C° 0.1 mm 3 mps 650 mmHg 92%
    03:00 -1°C° 0.1 mm 2 mps 650 mmHg 92%
    04:00 -1°C° 0.1 mm 2 mps 649 mmHg 92%
    05:00 -1°C° 0.6 mm 2 mps 649 mmHg 92%
    06:00 -1°C° 0.6 mm 2 mps 649 mmHg 92%
    07:00 -1°C° 0.6 mm 3 mps 648 mmHg 92%
    08:00 -1°C° 0.8 mm 3 mps 648 mmHg 93%
    09:00 0°C° 0.8 mm 3 mps 647 mmHg 93%
    10:00 0°C° 0.8 mm 3 mps 647 mmHg 94%
    11:00 0°C° 1.3 mm 3 mps 647 mmHg 94%
    12:00 +1°C° 1.3 mm 2 mps 646 mmHg 95%
    13:00 +1°C° 1.3 mm 2 mps 646 mmHg 96%
    14:00 +1°C° 0.3 mm 2 mps 646 mmHg 96%
    15:00 +1°C° 0.3 mm 2 mps 646 mmHg 95%
    16:00 +1°C° 0.3 mm 2 mps 646 mmHg 95%
    17:00 -1°C° 0 mm 2 mps 647 mmHg 94%
    18:00 -2°C° 0 mm 2 mps 647 mmHg 93%
    19:00 -2°C° 0 mm 2 mps 647 mmHg 92%
    20:00 -2°C° 0 mm 2 mps 647 mmHg 91%
    21:00 -3°C° 0 mm 2 mps 647 mmHg 91%
    22:00 -3°C° 0 mm 2 mps 647 mmHg 90%
    23:00 -3°C° 0.1 mm 2 mps 647 mmHg 90%

    26 January, Saturday

    Time Temperature Precipitation Wind Pressure Humidity
    00:00 -3°C° 0.1 mm 2 mps 648 mmHg 90%
    01:00 -3°C° 0.1 mm 2 mps 648 mmHg 90%
    02:00 -3°C° 0.4 mm 2 mps 648 mmHg 91%
    03:00 -3°C° 0.4 mm 2 mps 648 mmHg 92%
    04:00 -3°C° 0.4 mm 2 mps 648 mmHg 92%
    05:00 -3°C° 0.1 mm 2 mps 648 mmHg 92%
    06:00 -3°C° 0.1 mm 2 mps 649 mmHg 91%
    07:00 -3°C° 0.1 mm 2 mps 649 mmHg 91%
    08:00 -3°C° 0 mm 2 mps 650 mmHg 91%
    09:00 -2°C° 0 mm 2 mps 650 mmHg 91%
    10:00 -1°C° 0 mm 2 mps 651 mmHg 92%
    11:00 +1°C° 0 mm 2 mps 651 mmHg 91%
    12:00 +1°C° 0 mm 2 mps 651 mmHg 91%
    13:00 +3°C° 0 mm 1 mps 652 mmHg 91%
    14:00 +2°C° 0 mm 1 mps 652 mmHg 90%
    15:00 +2°C° 0 mm 1 mps 652 mmHg 90%
    16:00 +1°C° 0 mm 1 mps 652 mmHg 89%
    17:00 0°C° 0 mm 1 mps 652 mmHg 90%
    18:00 -1°C° 0 mm 1 mps 652 mmHg 90%
    19:00 -2°C° 0 mm 1 mps 652 mmHg 90%
    20:00 -3°C° 0 mm 1 mps 652 mmHg 89%
    21:00 -3°C° 0 mm 1 mps 653 mmHg 88%
    22:00 -3°C° 0 mm 1 mps 653 mmHg 87%
    23:00 -3°C° 0 mm 1 mps 653 mmHg 87%

    27 January, Sunday

    Time Temperature Precipitation Wind Pressure Humidity
    00:00 -3°C° 0 mm 1 mps 653 mmHg 86%
    01:00 -4°C° 0 mm 0 mps 653 mmHg 86%
    02:00 -4°C° 0 mm 0 mps 653 mmHg 87%
    03:00 -3°C° 0 mm 1 mps 653 mmHg 88%
    04:00 -3°C° 0 mm 1 mps 653 mmHg 89%
    05:00 -3°C° 0 mm 1 mps 654 mmHg 90%
    06:00 -3°C° 0 mm 1 mps 654 mmHg 91%
    07:00 -3°C° 0 mm 1 mps 654 mmHg 92%
    08:00 -2°C° 0 mm 1 mps 655 mmHg 92%
    09:00 0°C° 0 mm 1 mps 656 mmHg 92%
    10:00 -1°C° 0 mm 2 mps 656 mmHg 92%
    11:00 -1°C° 0.1 mm 2 mps 656 mmHg 93%
    12:00 +1°C° 0.1 mm 2 mps 656 mmHg 94%
    13:00 +1°C° 0.1 mm 2 mps 656 mmHg 95%
    14:00 +1°C° 0.1 mm 2 mps 656 mmHg 95%
    15:00 +1°C° 0.1 mm 2 mps 656 mmHg 96%
    16:00 +1°C° 0.1 mm 2 mps 656 mmHg 96%
    17:00 -1°C° 0 mm 2 mps 657 mmHg 96%
    18:00 -2°C° 0 mm 2 mps 657 mmHg 96%
    19:00 -2°C° 0 mm 2 mps 657 mmHg 96%
    20:00 -2°C° 0 mm 2 mps 657 mmHg 94%
    21:00 -3°C° 0 mm 2 mps 657 mmHg 92%
    22:00 -3°C° 0 mm 2 mps 657 mmHg 90%
    23:00 -4°C° 0.2 mm 3 mps 658 mmHg 91%
    Show more